| time (UTC) | temp F | wind direction | speed MPH | gust MPH | rain 1hr in | rain 24hr in | rain mn in | humidity % | barometer mb |
| 20260506195056 | 84 | 181 | 8.0 | 12.0 | 0.00 | 0.00 | 0.00 | 88 | 1007.1 |
| 20260506194321 | 84 | 126 | 8.0 | 13.0 | 0.00 | 0.00 | 0.00 | 88 | 1007.1 |
| 20260506193810 | 84 | 130 | 8.0 | 13.0 | 0.00 | 0.00 | 0.00 | 88 | 1007.2 |
| 20260506193544 | 84 | 150 | 8.0 | 13.0 | 0.00 | 0.00 | 0.00 | 88 | 1007.3 |
| 20260506192746 | 84 | 198 | 7.0 | 12.0 | 0.00 | 0.00 | 0.00 | 87 | 1007.3 |
| 20260506192243 | 84 | 111 | 7.0 | 15.0 | 0.00 | 0.00 | 0.00 | 88 | 1007.5 |
| 20260506191711 | 84 | 134 | 7.0 | 15.0 | 0.00 | 0.00 | 0.00 | 88 | 1007.5 |
| 20260506191210 | 84 | 150 | 7.0 | 13.0 | 0.00 | 0.00 | 0.00 | 89 | 1007.6 |
| 20260506190705 | 83 | 91 | 6.0 | 12.0 | 0.00 | 0.00 | 0.00 | 89 | 1007.7 |
| 20260506190136 | 83 | 161 | 7.0 | 13.0 | 0.00 | 0.00 | 0.00 | 89 | 1007.7 |
| 20260506185630 | 83 | 142 | 8.0 | 14.0 | 0.00 | 0.00 | 0.00 | 90 | 1007.8 |
| 20260506185111 | 83 | 180 | 6.0 | 14.0 | 0.00 | 0.00 | 0.00 | 90 | 1008.0 |
| 20260506184600 | 82 | 163 | 4.0 | 9.0 | 0.00 | 0.00 | 0.00 | 91 | 1008.1 |
| 20260506184039 | 82 | 99 | 3.0 | 7.0 | 0.00 | 0.00 | 0.00 | 92 | 1008.0 |
| 20260506183537 | 81 | 98 | 3.0 | 8.0 | 0.00 | 0.00 | 0.00 | 92 | 1008.1 |
| 20260506183009 | 81 | 98 | 4.0 | 9.0 | 0.00 | 0.00 | 0.00 | 91 | 1008.1 |
| 20260506182505 | 82 | 126 | 5.0 | 11.0 | 0.00 | 0.00 | 0.00 | 92 | 1008.3 |
| 20260506181938 | 82 | 92 | 6.0 | 11.0 | 0.00 | 0.00 | 0.00 | 91 | 1008.3 |
| 20260506181405 | 82 | 124 | 5.0 | 9.0 | 0.00 | 0.00 | 0.00 | 91 | 1008.4 |
| 20260506180834 | 82 | 113 | 4.0 | 8.0 | 0.00 | 0.00 | 0.00 | 92 | 1008.5 |
| 20260506180328 | 82 | 113 | 5.0 | 10.0 | 0.00 | 0.00 | 0.00 | 91 | 1008.5 |
| 20260506175819 | 82 | 110 | 5.0 | 10.0 | 0.00 | 0.00 | 0.00 | 91 | 1008.4 |
| 20260506175257 | 82 | 123 | 5.0 | 9.0 | 0.00 | 0.00 | 0.00 | 91 | 1008.6 |
| 20260506174753 | 82 | 138 | 5.0 | 9.0 | 0.00 | 0.00 | 0.00 | 91 | 1008.6 |
| 20260506174246 | 82 | 94 | 6.0 | 9.0 | 0.00 | 0.00 | 0.00 | 91 | 1008.6 |
| 20260506174003 | 82 | 174 | 6.0 | 13.0 | 0.00 | 0.00 | 0.00 | 91 | 1008.6 |
| 20260506173235 | 82 | 147 | 6.0 | 13.0 | 0.00 | 0.00 | 0.00 | 91 | 1008.6 |
| 20260506172730 | 82 | 152 | 7.0 | 11.0 | 0.00 | 0.00 | 0.00 | 91 | 1008.7 |
| 20260506172435 | 82 | 139 | 7.0 | 15.0 | 0.00 | 0.00 | 0.00 | 91 | 1008.6 |
| 20260506171917 | 82 | 121 | 7.0 | 15.0 | 0.00 | 0.00 | 0.00 | 91 | 1008.5 |
| 20260506171157 | 82 | 119 | 7.0 | 13.0 | 0.00 | 0.00 | 0.00 | 91 | 1008.6 |
| 20260506170912 | 82 | 132 | 8.0 | 11.0 | 0.00 | 0.00 | 0.00 | 91 | 1008.5 |
| 20260506170149 | 82 | 165 | 7.0 | 12.0 | 0.00 | 0.00 | 0.00 | 91 | 1008.6 |
| 20260506165643 | 82 | 120 | 7.0 | 12.0 | 0.00 | 0.00 | 0.00 | 91 | 1008.5 |
| 20260506165357 | 82 | 107 | 7.0 | 12.0 | 0.00 | 0.00 | 0.00 | 91 | 1008.5 |
| 20260506164629 | 82 | 104 | 8.0 | 12.0 | 0.00 | 0.00 | 0.00 | 91 | 1008.5 |
| 20260506164103 | 82 | 88 | 8.0 | 13.0 | 0.00 | 0.00 | 0.00 | 92 | 1008.6 |
| 20260506163558 | 82 | 117 | 7.0 | 13.0 | 0.00 | 0.00 | 0.00 | 91 | 1008.5 |
| 20260506163258 | 82 | 124 | 7.0 | 11.0 | 0.00 | 0.00 | 0.00 | 92 | 1008.5 |
| 20260506162530 | 82 | 92 | 7.0 | 11.0 | 0.00 | 0.00 | 0.00 | 92 | 1008.5 |
| 20260506162003 | 81 | 128 | 8.0 | 11.0 | 0.00 | 0.00 | 0.00 | 92 | 1008.4 |
| 20260506161435 | 81 | 97 | 7.0 | 13.0 | 0.00 | 0.00 | 0.00 | 92 | 1008.2 |
| 20260506160927 | 82 | 94 | 7.0 | 9.0 | 0.00 | 0.00 | 0.00 | 91 | 1008.3 |
| 20260506160419 | 82 | 91 | 9.0 | 0.0 | 0.00 | 0.00 | 0.00 | 92 | 1008.0 |
| 20260506160004 | 81 | 89 | 9.0 | 17.0 | 0.00 | 0.00 | 0.00 | 92 | 1008.2 |
| 20260506155454 | 81 | 92 | 9.0 | 13.0 | 0.00 | 0.00 | 0.00 | 93 | 1007.9 |
| 20260506154936 | 81 | 94 | 8.0 | 14.0 | 0.00 | 0.00 | 0.00 | 94 | 1007.7 |
| 20260506154427 | 80 | 108 | 7.0 | 13.0 | 0.00 | 0.00 | 0.00 | 94 | 1007.7 |
| 20260506153928 | 80 | 108 | 7.0 | 13.0 | 0.00 | 0.00 | 0.00 | 95 | 1007.6 |
| 20260506153419 | 80 | 86 | 7.0 | 11.0 | 0.00 | 0.00 | 0.00 | 96 | 1007.6 |
| 20260506153123 | 79 | 98 | 6.0 | 10.0 | 0.00 | 0.00 | 0.00 | 96 | 1007.7 |
| 20260506152348 | 79 | 100 | 6.0 | 10.0 | 0.00 | 0.00 | 0.00 | 96 | 1007.8 |
| 20260506152055 | 79 | 99 | 7.0 | 11.0 | 0.00 | 0.00 | 0.00 | 96 | 1007.7 |
| 20260506151327 | 79 | 101 | 5.0 | 11.0 | 0.00 | 0.00 | 0.00 | 96 | 1007.6 |
| 20260506150829 | 79 | 92 | 4.0 | 10.0 | 0.00 | 0.00 | 0.00 | 97 | 1007.5 |
| 20260506150304 | 78 | 94 | 6.0 | 9.0 | 0.00 | 0.00 | 0.00 | 97 | 1007.4 |
| 20260506145735 | 78 | 94 | 5.0 | 10.0 | 0.00 | 0.00 | 0.00 | 97 | 1007.4 |
| 20260506145231 | 78 | 94 | 5.0 | 10.0 | 0.00 | 0.00 | 0.00 | 97 | 1007.3 |
| 20260506144948 | 78 | 98 | 5.0 | 8.0 | 0.00 | 0.00 | 0.00 | 97 | 1007.4 |
| 20260506144221 | 78 | 98 | 5.0 | 10.0 | 0.00 | 0.00 | 0.00 | 97 | 1007.3 |
| 20260506143657 | 78 | 98 | 4.0 | 10.0 | 0.00 | 0.00 | 0.00 | 97 | 1007.2 |
| 20260506143151 | 78 | 97 | 5.0 | 9.0 | 0.00 | 0.00 | 0.00 | 97 | 1007.2 |
| 20260506142627 | 78 | 97 | 5.0 | 9.0 | 0.00 | 0.00 | 0.00 | 97 | 1007.2 |
| 20260506142345 | 78 | 97 | 5.0 | 9.0 | 0.00 | 0.00 | 0.00 | 97 | 1007.1 |
| 20260506141617 | 78 | 85 | 5.0 | 9.0 | 0.00 | 0.00 | 0.00 | 97 | 1007.1 |
| 20260506141112 | 78 | 86 | 5.0 | 9.0 | 0.00 | 0.00 | 0.00 | 97 | 1007.0 |
| 20260506140605 | 78 | 85 | 4.0 | 9.0 | 0.00 | 0.00 | 0.00 | 97 | 1007.2 |
| 20260506135535 | 78 | 101 | 5.0 | 9.0 | 0.00 | 0.00 | 0.00 | 97 | 1007.1 |
| 20260506135032 | 78 | 94 | 4.0 | 8.0 | 0.00 | 0.00 | 0.00 | 97 | 1007.3 |
| 20260506134726 | 78 | 95 | 5.0 | 8.0 | 0.00 | 0.00 | 0.00 | 97 | 1007.2 |
| 20260506133923 | 78 | 95 | 4.0 | 7.0 | 0.00 | 0.00 | 0.00 | 97 | 1007.2 |
| 20260506133355 | 78 | 96 | 4.0 | 7.0 | 0.00 | 0.00 | 0.00 | 97 | 1007.2 |
| 20260506133113 | 78 | 96 | 5.0 | 8.0 | 0.00 | 0.00 | 0.00 | 97 | 1007.2 |
| 20260506132323 | 78 | 96 | 4.0 | 8.0 | 0.00 | 0.00 | 0.00 | 97 | 1007.3 |
| 20260506131823 | 78 | 97 | 3.0 | 7.0 | 0.00 | 0.00 | 0.00 | 97 | 1007.4 |
| 20260506131539 | 78 | 97 | 3.0 | 7.0 | 0.00 | 0.00 | 0.00 | 97 | 1007.2 |
| 20260506131035 | 78 | 97 | 4.0 | 7.0 | 0.00 | 0.00 | 0.00 | 97 | 1007.3 |
| 20260506130302 | 77 | 98 | 4.0 | 7.0 | 0.00 | 0.00 | 0.00 | 97 | 1007.1 |
| 20260506130028 | 77 | 99 | 3.0 | 6.0 | 0.00 | 0.00 | 0.00 | 97 | 1007.1 |
| 20260506125235 | 77 | 98 | 4.0 | 6.0 | 0.00 | 0.00 | 0.00 | 97 | 1007.0 |
| 20260506124727 | 77 | 98 | 4.0 | 6.0 | 0.00 | 0.00 | 0.00 | 97 | 1007.1 |
| 20260506124220 | 77 | 98 | 3.0 | 5.0 | 0.00 | 0.00 | 0.00 | 97 | 1007.1 |
| 20260506123714 | 77 | 98 | 3.0 | 6.0 | 0.00 | 0.00 | 0.00 | 97 | 1007.0 |
| 20260506123150 | 77 | 98 | 3.0 | 6.0 | 0.00 | 0.00 | 0.00 | 97 | 1007.0 |
| 20260506122624 | 77 | 98 | 2.0 | 5.0 | 0.00 | 0.00 | 0.00 | 97 | 1007.1 |
| 20260506122119 | 77 | 98 | 2.0 | 5.0 | 0.00 | 0.00 | 0.00 | 97 | 1007.2 |
| 20260506121546 | 77 | 98 | 3.0 | 6.0 | 0.00 | 0.00 | 0.00 | 97 | 1007.0 |
| 20260506121039 | 77 | 98 | 3.0 | 5.0 | 0.00 | 0.00 | 0.00 | 97 | 1007.0 |
| 20260506120505 | 77 | 98 | 3.0 | 6.0 | 0.00 | 0.00 | 0.00 | 97 | 1007.0 |
| 20260506115958 | 77 | 98 | 4.0 | 5.0 | 0.00 | 0.00 | 0.00 | 97 | 1006.9 |
| 20260506115435 | 77 | 99 | 4.0 | 6.0 | 0.00 | 0.00 | 0.00 | 97 | 1006.7 |
| 20260506114933 | 77 | 99 | 3.0 | 6.0 | 0.00 | 0.00 | 0.00 | 97 | 1006.9 |
| 20260506114405 | 77 | 99 | 3.0 | 7.0 | 0.00 | 0.00 | 0.00 | 97 | 1006.8 |
| 20260506113901 | 77 | 99 | 3.0 | 7.0 | 0.00 | 0.00 | 0.00 | 97 | 1006.8 |
| 20260506113355 | 77 | 103 | 3.0 | 5.0 | 0.00 | 0.00 | 0.00 | 97 | 1006.8 |
| 20260506113116 | 77 | 103 | 2.0 | 5.0 | 0.00 | 0.00 | 0.00 | 97 | 1006.8 |
| 20260506112345 | 77 | 103 | 2.0 | 6.0 | 0.00 | 0.00 | 0.00 | 97 | 1006.8 |
| 20260506111841 | 77 | 103 | 2.0 | 6.0 | 0.00 | 0.00 | 0.00 | 97 | 1006.8 |
| 20260506111316 | 77 | 103 | 3.0 | 7.0 | 0.00 | 0.00 | 0.00 | 97 | 1006.8 |
| 20260506110806 | 77 | 103 | 3.0 | 7.0 | 0.00 | 0.00 | 0.00 | 97 | 1006.7 |
| 20260506110522 | 77 | 104 | 3.0 | 6.0 | 0.00 | 0.00 | 0.00 | 97 | 1006.7 |
| 20260506105727 | 77 | 103 | 3.0 | 6.0 | 0.00 | 0.00 | 0.00 | 97 | 1006.7 |
| 20260506105202 | 77 | 103 | 4.0 | 8.0 | 0.00 | 0.00 | 0.00 | 97 | 1006.5 |
| 20260506104657 | 77 | 103 | 5.0 | 9.0 | 0.00 | 0.00 | 0.00 | 97 | 1006.5 |
| 20260506104406 | 77 | 103 | 4.0 | 9.0 | 0.00 | 0.00 | 0.00 | 97 | 1006.5 |
| 20260506103637 | 77 | 101 | 4.0 | 7.0 | 0.00 | 0.00 | 0.00 | 97 | 1006.4 |
| 20260506103336 | 77 | 101 | 4.0 | 7.0 | 0.00 | 0.00 | 0.00 | 97 | 1006.5 |
| 20260506102834 | 77 | 101 | 4.0 | 7.0 | 0.00 | 0.00 | 0.00 | 97 | 1006.4 |
| 20260506102053 | 77 | 101 | 4.0 | 7.0 | 0.00 | 0.00 | 0.00 | 97 | 1006.5 |
| 20260506101553 | 77 | 101 | 3.0 | 7.0 | 0.00 | 0.00 | 0.00 | 97 | 1006.5 |
| 20260506101056 | 77 | 101 | 3.0 | 7.0 | 0.00 | 0.00 | 0.00 | 97 | 1006.4 |
| 20260506100549 | 77 | 101 | 4.0 | 8.0 | 0.00 | 0.00 | 0.00 | 97 | 1006.4 |
| 20260506100024 | 77 | 101 | 4.0 | 8.0 | 0.00 | 0.00 | 0.00 | 96 | 1006.3 |
| 20260506095737 | 77 | 101 | 4.0 | 6.0 | 0.00 | 0.00 | 0.00 | 96 | 1006.3 |
| 20260506094953 | 77 | 100 | 3.0 | 6.0 | 0.00 | 0.00 | 0.00 | 96 | 1006.4 |
| 20260506094449 | 77 | 100 | 3.0 | 6.0 | 0.00 | 0.00 | 0.00 | 96 | 1006.4 |
| 20260506094150 | 77 | 100 | 3.0 | 6.0 | 0.00 | 0.00 | 0.00 | 96 | 1006.4 |
| 20260506093416 | 78 | 100 | 3.0 | 6.0 | 0.00 | 0.00 | 0.00 | 96 | 1006.2 |
| 20260506092854 | 77 | 100 | 3.0 | 6.0 | 0.00 | 0.00 | 0.00 | 96 | 1006.3 |
| 20260506092344 | 77 | 100 | 4.0 | 7.0 | 0.00 | 0.00 | 0.00 | 96 | 1006.2 |
| 20260506091828 | 77 | 100 | 3.0 | 7.0 | 0.00 | 0.00 | 0.00 | 96 | 1006.2 |
| 20260506091324 | 77 | 100 | 2.0 | 6.0 | 0.00 | 0.00 | 0.00 | 96 | 1006.3 |
| 20260506091013 | 77 | 100 | 2.0 | 6.0 | 0.00 | 0.00 | 0.00 | 96 | 1006.4 |
| 20260506090224 | 77 | 100 | 3.0 | 7.0 | 0.00 | 0.00 | 0.00 | 96 | 1006.3 |
| 20260506085721 | 77 | 100 | 3.0 | 7.0 | 0.00 | 0.00 | 0.00 | 96 | 1006.2 |
| 20260506085207 | 77 | 100 | 3.0 | 5.0 | 0.00 | 0.00 | 0.00 | 96 | 1006.2 |
| 20260506084633 | 77 | 100 | 3.0 | 7.0 | 0.00 | 0.00 | 0.00 | 96 | 1006.3 |
| 20260506084102 | 77 | 100 | 3.0 | 7.0 | 0.00 | 0.00 | 0.00 | 96 | 1006.3 |
| 20260506083556 | 77 | 100 | 3.0 | 6.0 | 0.00 | 0.00 | 0.00 | 96 | 1006.4 |
| 20260506083051 | 77 | 100 | 4.0 | 8.0 | 0.00 | 0.00 | 0.00 | 96 | 1006.3 |
| 20260506082016 | 78 | 101 | 5.0 | 7.0 | 0.00 | 0.00 | 0.00 | 96 | 1006.1 |
| 20260506081455 | 78 | 101 | 5.0 | 9.0 | 0.00 | 0.00 | 0.00 | 96 | 1006.2 |
| 20260506080953 | 78 | 101 | 4.0 | 9.0 | 0.00 | 0.00 | 0.00 | 96 | 1006.2 |
| 20260506080441 | 78 | 101 | 4.0 | 9.0 | 0.00 | 0.00 | 0.00 | 96 | 1006.4 |
| 20260506073356 | 78 | 131 | 5.0 | 8.0 | 0.00 | 0.00 | 0.00 | 95 | 1006.7 |
| 20260506072854 | 78 | 140 | 5.0 | 10.0 | 0.00 | 0.00 | 0.00 | 95 | 1006.8 |
| 20260506072351 | 78 | 134 | 5.0 | 10.0 | 0.00 | 0.00 | 0.00 | 95 | 1006.8 |
| 20260506071847 | 78 | 150 | 5.0 | 10.0 | 0.00 | 0.00 | 0.00 | 95 | 1006.9 |
| 20260506071340 | 78 | 114 | 5.0 | 10.0 | 0.00 | 0.00 | 0.00 | 95 | 1007.1 |
| 20260506070837 | 78 | 114 | 6.0 | 10.0 | 0.00 | 0.00 | 0.00 | 95 | 1007.1 |
| 20260506070309 | 78 | 114 | 6.0 | 11.0 | 0.00 | 0.00 | 0.00 | 95 | 1007.1 |
| 20260506062040 | 78 | 158 | 5.0 | 9.0 | 0.00 | 0.00 | 0.00 | 94 | 1007.5 |
| 20260506061508 | 78 | 154 | 5.0 | 12.0 | 0.00 | 0.00 | 0.00 | 94 | 1007.6 |
| 20260506060443 | 78 | 151 | 7.0 | 15.0 | 0.00 | 0.00 | 0.00 | 94 | 1007.6 |
| 20260506060200 | 78 | 159 | 7.0 | 14.0 | 0.00 | 0.00 | 0.00 | 94 | 1007.6 |
| 20260506051319 | 79 | 140 | 8.0 | 14.0 | 0.00 | 0.00 | 0.00 | 93 | 1007.2 |
| 20260506050754 | 79 | 162 | 8.0 | 14.0 | 0.00 | 0.00 | 0.00 | 93 | 1007.0 |
| 20260506050233 | 79 | 145 | 8.0 | 14.0 | 0.00 | 0.00 | 0.00 | 93 | 1007.0 |
| 20260506044639 | 79 | 135 | 8.0 | 14.0 | 0.00 | 0.00 | 0.00 | 93 | 1007.0 |
| 20260506044108 | 78 | 149 | 7.0 | 14.0 | 0.00 | 0.00 | 0.00 | 94 | 1007.0 |
| 20260506043552 | 78 | 124 | 7.0 | 11.0 | 0.00 | 0.00 | 0.00 | 94 | 1007.1 |
| 20260506043049 | 78 | 140 | 7.0 | 13.0 | 0.00 | 0.00 | 0.00 | 94 | 1006.9 |
| 20260506042551 | 78 | 130 | 7.0 | 16.0 | 0.00 | 0.00 | 0.00 | 94 | 1006.7 |
| 20260506042027 | 78 | 130 | 7.0 | 16.0 | 0.00 | 0.00 | 0.00 | 94 | 1006.9 |
| 20260506041526 | 78 | 172 | 7.0 | 13.0 | 0.00 | 0.00 | 0.00 | 94 | 1006.8 |
| 20260506041017 | 78 | 132 | 7.0 | 14.0 | 0.00 | 0.00 | 0.00 | 94 | 1006.8 |
| 20260506040510 | 78 | 128 | 8.0 | 14.0 | 0.00 | 0.00 | 0.00 | 94 | 1006.8 |
| 20260506035946 | 78 | 157 | 8.0 | 14.0 | 0.00 | 0.00 | 0.00 | 94 | 1006.8 |
| 20260506035441 | 78 | 136 | 8.0 | 12.0 | 0.00 | 0.00 | 0.00 | 94 | 1006.7 |
| 20260506035208 | 78 | 136 | 7.0 | 12.0 | 0.00 | 0.00 | 0.00 | 94 | 1006.6 |
| 20260506034410 | 78 | 133 | 7.0 | 15.0 | 0.00 | 0.00 | 0.00 | 94 | 1006.6 |
| 20260506033903 | 78 | 127 | 8.0 | 15.0 | 0.00 | 0.00 | 0.00 | 94 | 1006.7 |
| 20260506033401 | 78 | 107 | 7.0 | 12.0 | 0.00 | 0.00 | 0.00 | 94 | 1006.6 |
| 20260506032827 | 78 | 115 | 7.0 | 12.0 | 0.00 | 0.00 | 0.00 | 94 | 1006.6 |
| 20260506032301 | 78 | 107 | 6.0 | 11.0 | 0.00 | 0.00 | 0.00 | 94 | 1006.6 |
| 20260506031742 | 78 | 171 | 6.0 | 11.0 | 0.00 | 0.00 | 0.00 | 94 | 1006.7 |
| 20260506031238 | 78 | 115 | 5.0 | 10.0 | 0.00 | 0.00 | 0.00 | 94 | 1006.7 |
| 20260506030731 | 78 | 132 | 6.0 | 10.0 | 0.00 | 0.00 | 0.00 | 94 | 1006.7 |
| 20260506030208 | 78 | 121 | 6.0 | 10.0 | 0.00 | 0.00 | 0.00 | 94 | 1006.6 |
| 20260506025704 | 78 | 138 | 6.0 | 11.0 | 0.00 | 0.00 | 0.00 | 94 | 1006.5 |
| 20260506025207 | 78 | 123 | 6.0 | 11.0 | 0.00 | 0.00 | 0.00 | 94 | 1006.5 |
| 20260506024647 | 78 | 132 | 6.0 | 11.0 | 0.00 | 0.00 | 0.00 | 94 | 1006.5 |
| 20260506024402 | 78 | 127 | 5.0 | 10.0 | 0.00 | 0.00 | 0.00 | 94 | 1006.3 |
| 20260506023646 | 78 | 146 | 5.0 | 10.0 | 0.00 | 0.00 | 0.00 | 94 | 1006.3 |
| 20260506023123 | 78 | 118 | 5.0 | 11.0 | 0.00 | 0.00 | 0.00 | 94 | 1006.2 |
| 20260506022552 | 78 | 128 | 5.0 | 11.0 | 0.00 | 0.00 | 0.00 | 94 | 1006.1 |
| 20260506022032 | 78 | 119 | 5.0 | 12.0 | 0.00 | 0.00 | 0.00 | 93 | 1006.1 |
| 20260506021530 | 78 | 122 | 5.0 | 12.0 | 0.00 | 0.00 | 0.00 | 93 | 1006.1 |
| 20260506021256 | 78 | 153 | 5.0 | 9.0 | 0.00 | 0.00 | 0.00 | 93 | 1006.1 |
| 20260506020501 | 79 | 148 | 5.0 | 12.0 | 0.00 | 0.00 | 0.00 | 93 | 1006.0 |
| 20260506015931 | 79 | 167 | 5.0 | 12.0 | 0.00 | 0.00 | 0.00 | 93 | 1005.9 |
| 20260506015405 | 79 | 149 | 6.0 | 12.0 | 0.00 | 0.00 | 0.00 | 93 | 1005.8 |
| 20260506014901 | 79 | 161 | 6.0 | 12.0 | 0.00 | 0.00 | 0.00 | 93 | 1005.6 |
| 20260506014359 | 79 | 160 | 6.0 | 11.0 | 0.00 | 0.00 | 0.00 | 93 | 1005.6 |
| 20260506013857 | 79 | 121 | 6.0 | 12.0 | 0.00 | 0.00 | 0.00 | 93 | 1005.5 |
| 20260506013345 | 79 | 163 | 8.0 | 15.0 | 0.00 | 0.00 | 0.00 | 93 | 1005.5 |
| 20260506013054 | 79 | 169 | 7.0 | 15.0 | 0.00 | 0.00 | 0.00 | 93 | 1005.2 |
| 20260506012340 | 79 | 117 | 7.0 | 11.0 | 0.00 | 0.00 | 0.00 | 93 | 1005.1 |
| 20260506011813 | 79 | 132 | 7.0 | 16.0 | 0.00 | 0.00 | 0.00 | 93 | 1005.1 |
| 20260506011314 | 79 | 115 | 7.0 | 14.0 | 0.00 | 0.00 | 0.00 | 92 | 1004.9 |
| 20260506010802 | 79 | 113 | 7.0 | 12.0 | 0.00 | 0.00 | 0.00 | 92 | 1005.0 |
| 20260506010305 | 79 | 171 | 6.0 | 11.0 | 0.00 | 0.00 | 0.00 | 92 | 1005.0 |
| 20260506005739 | 79 | 128 | 7.0 | 13.0 | 0.00 | 0.00 | 0.00 | 92 | 1005.0 |
| 20260506005211 | 80 | 125 | 7.0 | 13.0 | 0.00 | 0.00 | 0.00 | 91 | 1004.9 |
| 20260506004702 | 80 | 152 | 7.0 | 12.0 | 0.00 | 0.00 | 0.00 | 91 | 1004.9 |
| 20260506004421 | 80 | 153 | 7.0 | 16.0 | 0.00 | 0.00 | 0.00 | 91 | 1004.9 |
| 20260506003629 | 80 | 148 | 8.0 | 15.0 | 0.00 | 0.00 | 0.00 | 91 | 1004.7 |
| 20260506003101 | 80 | 134 | 9.0 | 15.0 | 0.00 | 0.00 | 0.00 | 91 | 1004.7 |
| 20260506002600 | 80 | 166 | 8.0 | 15.0 | 0.00 | 0.00 | 0.00 | 91 | 1004.8 |
| 20260506002101 | 80 | 114 | 7.0 | 14.0 | 0.00 | 0.00 | 0.00 | 91 | 1004.8 |
| 20260506001557 | 80 | 119 | 7.0 | 14.0 | 0.00 | 0.00 | 0.00 | 90 | 1004.8 |
| 20260506001054 | 80 | 103 | 7.0 | 13.0 | 0.00 | 0.00 | 0.00 | 90 | 1004.8 |
| 20260506000550 | 80 | 136 | 8.0 | 15.0 | 0.00 | 0.00 | 0.00 | 90 | 1004.7 |
| 20260506000045 | 80 | 155 | 9.0 | 15.0 | 0.00 | 0.00 | 0.00 | 89 | 1004.7 |
| 20260505235535 | 81 | 121 | 10.0 | 20.0 | 0.00 | 0.00 | 0.00 | 89 | 1004.7 |
| 20260505235011 | 81 | 145 | 11.0 | 20.0 | 0.00 | 0.00 | 0.00 | 88 | 1004.8 |
| 20260505234500 | 81 | 144 | 10.0 | 16.0 | 0.00 | 0.00 | 0.00 | 89 | 1004.7 |
| 20260505234158 | 81 | 153 | 9.0 | 16.0 | 0.00 | 0.00 | 0.00 | 88 | 1004.5 |
| 20260505233405 | 81 | 122 | 8.0 | 16.0 | 0.00 | 0.00 | 0.00 | 88 | 1004.6 |
| 20260505232845 | 81 | 167 | 9.0 | 14.0 | 0.00 | 0.00 | 0.00 | 88 | 1004.7 |
| 20260505232346 | 81 | 170 | 11.0 | 23.0 | 0.00 | 0.00 | 0.00 | 88 | 1004.8 |
| 20260505231843 | 81 | 157 | 11.0 | 23.0 | 0.00 | 0.00 | 0.00 | 88 | 1004.8 |
| 20260505231345 | 81 | 123 | 11.0 | 19.0 | 0.00 | 0.00 | 0.00 | 88 | 1004.9 |
| 20260505230821 | 81 | 108 | 10.0 | 19.0 | 0.00 | 0.00 | 0.00 | 88 | 1004.8 |
| 20260505230251 | 81 | 148 | 11.0 | 21.0 | 0.00 | 0.00 | 0.00 | 88 | 1004.7 |
| 20260505225719 | 81 | 130 | 11.0 | 21.0 | 0.00 | 0.00 | 0.00 | 87 | 1004.8 |
| 20260505225215 | 81 | 117 | 10.0 | 18.0 | 0.00 | 0.00 | 0.00 | 87 | 1004.7 |
| 20260505224934 | 81 | 132 | 10.0 | 18.0 | 0.00 | 0.00 | 0.00 | 87 | 1004.8 |
| 20260505224437 | 81 | 132 | 11.0 | 18.0 | 0.00 | 0.00 | 0.00 | 87 | 1004.9 |
| 20260505223650 | 81 | 133 | 10.0 | 18.0 | 0.00 | 0.00 | 0.00 | 87 | 1004.9 |
| 20260505223143 | 81 | 157 | 10.0 | 17.0 | 0.00 | 0.00 | 0.00 | 87 | 1005.0 |
| 20260505222642 | 81 | 148 | 11.0 | 17.0 | 0.00 | 0.00 | 0.00 | 87 | 1005.1 |
| 20260505222135 | 81 | 142 | 10.0 | 21.0 | 0.00 | 0.00 | 0.00 | 87 | 1005.1 |
| 20260505221629 | 81 | 132 | 10.0 | 21.0 | 0.00 | 0.00 | 0.00 | 86 | 1005.1 |
| 20260505221101 | 82 | 147 | 11.0 | 19.0 | 0.00 | 0.00 | 0.00 | 86 | 1005.2 |
| 20260505220531 | 82 | 126 | 10.0 | 19.0 | 0.00 | 0.00 | 0.00 | 86 | 1005.1 |
| 20260505220030 | 82 | 123 | 10.0 | 20.0 | 0.00 | 0.00 | 0.00 | 86 | 1005.1 |
| 20260505215503 | 82 | 171 | 11.0 | 22.0 | 0.00 | 0.00 | 0.00 | 86 | 1005.2 |
| 20260505215005 | 81 | 144 | 11.0 | 22.0 | 0.00 | 0.00 | 0.00 | 86 | 1005.3 |
| 20260505214437 | 82 | 153 | 10.0 | 21.0 | 0.00 | 0.00 | 0.00 | 85 | 1005.4 |
| 20260505213937 | 82 | 122 | 10.0 | 19.0 | 0.00 | 0.00 | 0.00 | 85 | 1005.5 |
| 20260505213648 | 82 | 122 | 9.0 | 19.0 | 0.00 | 0.00 | 0.00 | 85 | 1005.4 |
| 20260505212901 | 82 | 129 | 10.0 | 23.0 | 0.00 | 0.00 | 0.00 | 85 | 1005.5 |
| 20260505212334 | 82 | 135 | 11.0 | 23.0 | 0.00 | 0.00 | 0.00 | 84 | 1005.6 |
| 20260505211835 | 82 | 134 | 11.0 | 18.0 | 0.00 | 0.00 | 0.00 | 84 | 1005.6 |
| 20260505211336 | 82 | 143 | 10.0 | 18.0 | 0.00 | 0.00 | 0.00 | 84 | 1005.6 |
| 20260505210839 | 82 | 153 | 10.0 | 17.0 | 0.00 | 0.00 | 0.00 | 83 | 1005.7 |
| 20260505210335 | 82 | 107 | 9.0 | 16.0 | 0.00 | 0.00 | 0.00 | 84 | 1005.8 |
| 20260505205825 | 83 | 179 | 8.0 | 16.0 | 0.00 | 0.00 | 0.00 | 83 | 1005.8 |
| 20260505205258 | 83 | 128 | 9.0 | 13.0 | 0.00 | 0.00 | 0.00 | 84 | 1005.8 |
| 20260505204739 | 82 | 112 | 9.0 | 17.0 | 0.00 | 0.00 | 0.00 | 85 | 1005.9 |
| 20260505204211 | 82 | 165 | 9.0 | 15.0 | 0.00 | 0.00 | 0.00 | 85 | 1006.0 |
| 20260505203917 | 82 | 115 | 9.0 | 15.0 | 0.00 | 0.00 | 0.00 | 85 | 1006.1 |
| 20260505203424 | 82 | 103 | 8.0 | 16.0 | 0.00 | 0.00 | 0.00 | 85 | 1006.3 |
| 20260505202629 | 82 | 148 | 8.0 | 16.0 | 0.00 | 0.00 | 0.00 | 85 | 1006.4 |
| 20260505202059 | 82 | 146 | 8.0 | 16.0 | 0.00 | 0.00 | 0.00 | 85 | 1006.3 |
| 20260505201026 | 82 | 158 | 8.0 | 15.0 | 0.00 | 0.00 | 0.00 | 86 | 1006.4 |
| 20260505200521 | 82 | 134 | 8.0 | 15.0 | 0.00 | 0.00 | 0.00 | 86 | 1006.4 |
| 20260505200009 | 82 | 190 | 9.0 | 15.0 | 0.00 | 0.00 | 0.00 | 86 | 1006.5 |